Seattle Boeing, WA

2:12 AM PST on December 11, 2018 (GMT -0800)
Boeing Field-King County International

Weather History for KBFI - October, 2018

Change the Weather History Date:

Sunday, October 28, 2018

  Actual Average Record
Temperature  
Mean Temperature 52 °F -  
Max Temperature 57 °F 54 °F 66 °F (1962)
Min Temperature 48 °F 43 °F 30 °F (1971)
Degree Days  
Heating Degree Days 12    
Growing Degree Days 2 (Base 50)    
Moisture  
Dew Point 48 °F    
Average Humidity 83    
Maximum Humidity 96    
Minimum Humidity 74    
Precipitation  
Precipitation 0.38 in - - ()
Sea Level Pressure  
Sea Level Pressure 29.92 in    
Wind  
Wind Speed 10 mph (SSE)    
Max Wind Speed 16 mph    
Max Gust Speed 21 mph    
Visibility 10 miles    
Events Rain    
Averages and records for this station are not official NWS values.
T = Trace of Precipitation, MM = Missing Value Source: NWS Daily Summary

Daily Weather History Graph

Daily Weather History Graph

Search for Another Location

Airport or City:

Astronomy

Oct. 28, 2018 Rise Set
Actual Time 7:47 AM PDT 5:57 PM PDT
Civil Twilight 7:15 AM PDT 6:29 PM PDT
Nautical Twilight 6:39 AM PDT 7:05 PM PDT
Astronomical Twilight 6:03 AM PDT 7:41 PM PDT
Moon 9:12 PM PDT (10/28) 12:05 PM PDT (10/28)
Length of Visible Light 11h 14m
Length of Day
10h 10m
Waning Gibbous, 81% of the Moon is Illuminated
Oct 28
Waning Gibbous
Oct 31
Last Quarter
Nov 7
New
Nov 15
First Quarter
Nov 22
Full

Hourly Weather History & Observations

Time (PDT) Temp. Dew Point Humidity Pressure Visibility Wind Dir Wind Speed Gust Speed Precip Events Conditions
12:53 AM 55.0 °F 54.0 °F 96% 29.75 in 10.0 mi SSE 8.1 mph - 0.05 in Rain Light Rain
1:53 AM 55.9 °F 54.0 °F 93% 29.75 in 10.0 mi SSE 11.5 mph - 0.04 in Rain Light Rain
2:53 AM 57.0 °F 54.0 °F 89% 29.77 in 10.0 mi SSE 8.1 mph - 0.00 in   Overcast
3:53 AM 57.0 °F 52.0 °F 83% 29.80 in 10.0 mi South 12.7 mph - 0.04 in Rain Light Rain
4:53 AM 55.0 °F 50.0 °F 83% 29.81 in 10.0 mi South 10.4 mph - 0.01 in Rain Light Rain
5:53 AM 54.0 °F 50.0 °F 86% 29.83 in 10.0 mi SSE 10.4 mph - 0.00 in   Scattered Clouds
6:53 AM 54.0 °F 48.9 °F 83% 29.87 in 7.0 mi SW 8.1 mph 20.7 mph 0.04 in Rain Light Rain
7:53 AM 52.0 °F 46.9 °F 83% 29.88 in 10.0 mi South 15.0 mph 20.7 mph 0.01 in   Overcast
8:53 AM 52.0 °F 46.9 °F 83% 29.90 in 10.0 mi SSE 9.2 mph - 0.00 in   Scattered Clouds
9:53 AM 55.0 °F 48.0 °F 77% 29.92 in 10.0 mi South 6.9 mph - N/A   Mostly Cloudy
10:50 AM 53.6 °F 46.4 °F 77% 29.95 in 8.0 mi SSW 9.2 mph - 0.00 in Rain Light Rain
10:53 AM 54.0 °F 46.9 °F 77% 29.95 in 10.0 mi SSW 9.2 mph - 0.01 in Rain Light Rain
11:53 AM 55.0 °F 48.9 °F 80% 29.94 in 10.0 mi SSE 13.8 mph - 0.00 in   Mostly Cloudy
12:53 PM 55.9 °F 48.9 °F 77% 29.96 in 10.0 mi South 16.1 mph - 0.00 in   Scattered Clouds
1:53 PM 55.0 °F 48.0 °F 77% 29.98 in 10.0 mi SSE 12.7 mph - N/A   Mostly Cloudy
2:53 PM 55.0 °F 46.9 °F 74% 29.97 in 10.0 mi SSE 12.7 mph 20.7 mph 0.00 in   Mostly Cloudy
3:53 PM 53.1 °F 46.9 °F 80% 29.98 in 10.0 mi SE 9.2 mph - 0.00 in   Mostly Cloudy
4:53 PM 53.1 °F 48.0 °F 83% 29.98 in 10.0 mi SSE 11.5 mph - N/A   Mostly Cloudy
5:53 PM 51.1 °F 46.9 °F 86% 29.99 in 10.0 mi SSE 6.9 mph - 0.04 in Rain Light Rain
6:53 PM 51.1 °F 46.0 °F 83% 30.00 in 9.0 mi SSE 8.1 mph - 0.07 in Rain Light Rain
7:53 PM 50.0 °F 46.9 °F 89% 30.00 in 10.0 mi SE 12.7 mph - 0.03 in   Overcast
8:53 PM 50.0 °F 46.0 °F 86% 30.00 in 10.0 mi SSE 10.4 mph - 0.01 in Rain Light Rain
9:53 PM 48.9 °F 46.0 °F 90% 30.01 in 9.0 mi SSE 5.8 mph - 0.01 in Rain Light Rain
10:53 PM 48.9 °F 45.0 °F 86% 30.01 in 10.0 mi SE 5.8 mph - 0.02 in   Scattered Clouds
11:53 PM 48.9 °F 45.0 °F 86% 30.01 in 10.0 mi SSE 10.4 mph - N/A   Scattered Clouds